WUK6HU EGGW-LEZL

Flight info

Callsign WUK6HU
Flight time 2h 36m
Altitude 35000
Route RODNI N27 ICTAM Q63 CPT Y321 PEPIS Q41 SAM M195 MARUK N621 LELNA DCT NOVAN DCT DELOG DCT VADOX DCT SNR DCT TITAN DCT RATAS DCT NEA DCT NONTU DCT ORBIS DCT DISKO DCT TLD DCT DOPEN DCT MONTO DCT MOLIN DCT HIJ
Aircraft A321/M-SDE3FGHIRWY/LB1

Departure

Time 2026-04-29 16:40
Airport London Luton Airport (EGGW)

Arrival

Time 2026-04-29 19:16
Airport Seville Airport (LEZL)
Time Latitude Longitude Altitude Speed Heading
2026-04-29 15:41 51.87957 -0.37324 508 ft 0 kts 162°
2026-04-29 16:31 51.87976 -0.37334 508 ft 4 kts 160°
2026-04-29 16:31 51.87999 -0.37352 508 ft 4 kts 132°
2026-04-29 16:32 51.88006 -0.37360 508 ft 4 kts 100°
2026-04-29 16:32 51.88013 -0.37343 508 ft 4 kts 57°
2026-04-29 16:32 51.88024 -0.37297 508 ft 4 kts 72°
2026-04-29 16:32 51.88029 -0.37275 508 ft 0 kts 72°
2026-04-29 16:35 51.88032 -0.37260 508 ft 5 kts 72°
2026-04-29 16:35 51.88032 -0.37156 508 ft 13 kts 133°
2026-04-29 16:36 51.87922 -0.37083 509 ft 22 kts 162°
2026-04-29 16:36 51.87794 -0.37014 515 ft 20 kts 161°
2026-04-29 16:36 51.87675 -0.36951 523 ft 15 kts 163°
2026-04-29 16:36 51.87616 -0.37077 522 ft 12 kts 264°
2026-04-29 16:37 51.87584 -0.37255 522 ft 22 kts 255°
2026-04-29 16:37 51.87580 -0.37420 523 ft 13 kts 250°
2026-04-29 16:37 51.87497 -0.37570 522 ft 23 kts 251°
2026-04-29 16:37 51.87475 -0.37718 523 ft 22 kts 257°
2026-04-29 16:38 51.87425 -0.37984 524 ft 18 kts 247°
2026-04-29 16:38 51.87355 -0.38076 523 ft 0 kts 207°
2026-04-29 16:38 51.87355 -0.38077 523 ft 0 kts 207°
2026-04-29 16:38 51.87353 -0.38078 523 ft 3 kts 207°
2026-04-29 16:39 51.87296 -0.38117 522 ft 14 kts 192°
2026-04-29 16:39 51.87254 -0.38009 524 ft 15 kts 69°
2026-04-29 16:39 51.87309 -0.37724 523 ft 57 kts 74°
2026-04-29 16:39 51.87489 -0.36664 528 ft 132 kts 74°
2026-04-29 16:40 51.87785 -0.35043 970 ft 157 kts 73°
2026-04-29 16:40 51.88096 -0.33303 1786 ft 172 kts 71°
2026-04-29 16:40 51.88452 -0.31310 2382 ft 197 kts 72°
2026-04-29 16:40 51.88851 -0.29060 2765 ft 220 kts 72°
2026-04-29 16:41 51.89135 -0.27397 2997 ft 235 kts 77°
2026-04-29 16:41 51.89034 -0.24719 3533 ft 250 kts 110°
2026-04-29 16:41 51.87417 -0.22060 4510 ft 264 kts 157°
2026-04-29 16:41 51.86189 -0.21698 5044 ft 271 kts 180°
2026-04-29 16:42 51.84394 -0.22653 5786 ft 279 kts 215°
2026-04-29 16:42 51.83172 -0.25083 6494 ft 285 kts 246°
2026-04-29 16:42 51.82602 -0.28168 7222 ft 288 kts 260°
2026-04-29 16:42 51.82330 -0.31373 8004 ft 288 kts 265°
2026-04-29 16:43 51.82127 -0.34598 8790 ft 289 kts 265°
2026-04-29 16:43 51.81898 -0.37830 9554 ft 290 kts 264°
2026-04-29 16:43 51.81614 -0.41064 10319 ft 291 kts 263°
2026-04-29 16:43 51.81187 -0.44357 10615 ft 311 kts 256°
2026-04-29 16:44 51.80645 -0.47839 10915 ft 326 kts 258°
2026-04-29 16:44 51.80127 -0.51425 11513 ft 330 kts 259°
2026-04-29 16:44 51.79611 -0.55055 12169 ft 333 kts 258°
2026-04-29 16:44 51.79084 -0.58704 12868 ft 335 kts 259°
2026-04-29 16:45 51.78543 -0.62373 13545 ft 337 kts 258°
2026-04-29 16:45 51.77983 -0.66067 14198 ft 339 kts 258°
2026-04-29 16:45 51.77412 -0.69771 14809 ft 341 kts 258°
2026-04-29 16:45 51.76836 -0.73497 15429 ft 342 kts 258°
2026-04-29 16:46 51.76097 -0.77148 16022 ft 345 kts 248°
2026-04-29 16:46 51.74893 -0.80517 16637 ft 349 kts 235°
2026-04-29 16:46 51.73267 -0.83446 17245 ft 353 kts 227°
2026-04-29 16:46 51.71517 -0.86239 17845 ft 355 kts 227°
2026-04-29 16:47 51.69762 -0.89053 18432 ft 357 kts 227°
2026-04-29 16:47 51.67999 -0.91894 18932 ft 360 kts 227°
2026-04-29 16:47 51.66223 -0.94753 19395 ft 363 kts 227°
2026-04-29 16:47 51.64425 -0.97645 19852 ft 367 kts 227°
2026-04-29 16:48 51.62605 -1.00561 20301 ft 371 kts 227°
2026-04-29 16:48 51.60766 -1.03499 20752 ft 375 kts 228°
2026-04-29 16:48 51.58910 -1.06468 21204 ft 378 kts 228°
2026-04-29 16:48 51.57034 -1.09462 21652 ft 382 kts 228°
2026-04-29 16:49 51.55127 -1.12460 22100 ft 386 kts 225°
2026-04-29 16:49 51.52865 -1.14870 22517 ft 397 kts 207°
2026-04-29 16:49 51.50295 -1.16584 22972 ft 402 kts 205°
2026-04-29 16:49 51.47683 -1.18265 23378 ft 406 kts 205°
2026-04-29 16:50 51.45050 -1.19941 23805 ft 409 kts 205°
2026-04-29 16:50 51.42390 -1.21625 24169 ft 413 kts 205°
2026-04-29 16:50 51.39707 -1.23321 24546 ft 416 kts 205°
2026-04-29 16:50 51.37010 -1.25030 24880 ft 418 kts 205°
2026-04-29 16:51 51.34301 -1.26750 25226 ft 421 kts 205°
2026-04-29 16:51 51.31561 -1.28492 25574 ft 424 kts 205°
2026-04-29 16:51 51.28811 -1.30242 25916 ft 427 kts 205°
2026-04-29 16:51 51.26045 -1.32004 26244 ft 430 kts 205°
2026-04-29 16:52 51.23260 -1.33776 26578 ft 432 kts 205°
2026-04-29 16:52 51.20451 -1.35555 26911 ft 435 kts 205°
2026-04-29 16:52 51.17632 -1.37337 27233 ft 438 kts 205°
2026-04-29 16:52 51.14783 -1.39131 27540 ft 441 kts 205°
2026-04-29 16:53 51.11919 -1.40930 27855 ft 444 kts 205°
2026-04-29 16:53 51.09040 -1.42738 28164 ft 447 kts 205°
2026-04-29 16:53 51.06140 -1.44560 28470 ft 449 kts 205°
2026-04-29 16:53 51.03220 -1.46394 28751 ft 453 kts 205°
2026-04-29 16:54 51.00280 -1.48239 29045 ft 455 kts 205°
2026-04-29 16:54 50.97323 -1.50090 29334 ft 458 kts 205°
2026-04-29 16:54 50.94352 -1.51950 29616 ft 461 kts 205°
2026-04-29 16:54 50.91355 -1.53823 29878 ft 464 kts 205°
2026-04-29 16:55 50.88338 -1.55703 30165 ft 467 kts 205°
2026-04-29 16:55 50.85301 -1.57588 30411 ft 470 kts 205°
2026-04-29 16:55 50.82255 -1.59472 30650 ft 471 kts 205°
2026-04-29 16:55 50.79197 -1.61365 30916 ft 473 kts 205°
2026-04-29 16:56 50.76129 -1.63268 31196 ft 473 kts 204°
2026-04-29 16:56 50.73060 -1.65172 31490 ft 474 kts 204°
2026-04-29 16:56 50.69993 -1.67075 31769 ft 475 kts 204°
2026-04-29 16:56 50.66921 -1.68972 32132 ft 473 kts 204°
2026-04-29 16:57 50.63867 -1.70852 32581 ft 469 kts 203°
2026-04-29 16:57 50.60838 -1.72715 33045 ft 465 kts 203°
2026-04-29 16:57 50.57832 -1.74562 33509 ft 462 kts 203°
2026-04-29 16:57 50.54851 -1.76387 33971 ft 458 kts 202°
2026-04-29 16:58 50.51890 -1.78198 34382 ft 454 kts 202°
2026-04-29 16:58 50.48953 -1.79995 34716 ft 452 kts 202°
2026-04-29 16:58 50.45991 -1.81805 35014 ft 450 kts 202°
2026-04-29 16:58 50.43113 -1.83561 35106 ft 447 kts 202°
2026-04-29 16:59 50.37393 -1.87041 35121 ft 433 kts 202°
2026-04-29 16:59 50.31837 -1.90425 35116 ft 431 kts 202°
2026-04-29 17:00 50.26207 -1.93846 35114 ft 431 kts 202°
2026-04-29 17:00 50.20656 -1.97194 35106 ft 431 kts 202°
2026-04-29 17:01 50.15028 -2.00579 35102 ft 431 kts 202°
2026-04-29 17:01 50.09439 -2.03944 35102 ft 431 kts 202°
2026-04-29 17:02 50.03839 -2.07301 35101 ft 431 kts 202°
2026-04-29 17:02 49.98246 -2.10633 35085 ft 431 kts 201°
2026-04-29 17:03 49.92584 -2.13546 35075 ft 431 kts 197°
2026-04-29 17:03 49.86811 -2.16125 35066 ft 432 kts 197°
2026-04-29 17:04 49.81026 -2.18693 35058 ft 432 kts 197°
2026-04-29 17:04 49.75223 -2.21372 35057 ft 432 kts 197°
2026-04-29 17:05 49.69472 -2.24069 35056 ft 432 kts 197°
2026-04-29 17:05 49.63714 -2.26736 35055 ft 432 kts 197°
2026-04-29 17:06 49.57953 -2.29395 35056 ft 432 kts 197°
2026-04-29 17:06 49.52191 -2.32050 35051 ft 432 kts 197°
2026-04-29 17:07 49.47403 -2.34248 35035 ft 432 kts 197°
2026-04-29 17:07 49.40659 -2.37343 35035 ft 433 kts 197°
2026-04-29 17:08 49.34890 -2.39984 35036 ft 432 kts 197°
2026-04-29 17:08 49.29130 -2.42606 35026 ft 432 kts 197°
2026-04-29 17:09 49.23375 -2.45219 35025 ft 431 kts 197°
2026-04-29 17:09 49.17628 -2.47818 35030 ft 430 kts 197°
2026-04-29 17:10 49.11899 -2.50415 35025 ft 429 kts 197°
2026-04-29 17:10 49.06176 -2.53003 35023 ft 428 kts 196°
2026-04-29 17:11 49.00474 -2.55572 35019 ft 427 kts 196°
2026-04-29 17:11 48.94783 -2.58129 35013 ft 426 kts 196°
2026-04-29 17:12 48.89109 -2.60673 35012 ft 424 kts 197°
2026-04-29 17:12 48.84411 -2.62784 35008 ft 423 kts 197°
2026-04-29 17:13 48.77829 -2.65727 35007 ft 421 kts 197°
2026-04-29 17:13 48.72213 -2.68216 35006 ft 419 kts 196°
2026-04-29 17:14 48.66624 -2.70689 35001 ft 418 kts 197°
2026-04-29 17:14 48.61055 -2.73161 35001 ft 416 kts 197°
2026-04-29 17:15 48.55499 -2.75623 35001 ft 415 kts 197°
2026-04-29 17:15 48.49968 -2.78057 34999 ft 414 kts 197°
2026-04-29 17:16 48.44450 -2.80480 35000 ft 412 kts 197°
2026-04-29 17:16 48.38950 -2.82901 35000 ft 411 kts 197°
2026-04-29 17:17 48.33465 -2.85303 34995 ft 410 kts 197°
2026-04-29 17:17 48.27992 -2.87693 34991 ft 409 kts 197°
2026-04-29 17:18 48.22532 -2.90085 34986 ft 408 kts 197°
2026-04-29 17:18 48.17962 -2.92079 34980 ft 408 kts 197°
2026-04-29 17:19 48.12508 -2.94442 34972 ft 408 kts 197°
2026-04-29 17:19 48.07060 -2.96802 34982 ft 408 kts 197°
2026-04-29 17:20 48.01610 -2.99162 34969 ft 407 kts 197°
2026-04-29 17:20 47.96174 -3.01507 34973 ft 406 kts 197°
2026-04-29 17:21 47.90755 -3.03843 34973 ft 405 kts 197°
2026-04-29 17:21 47.85339 -3.06172 34964 ft 405 kts 197°
2026-04-29 17:22 47.79932 -3.08484 34952 ft 404 kts 197°
2026-04-29 17:22 47.74537 -3.10787 34950 ft 403 kts 197°
2026-04-29 17:23 47.69157 -3.13079 34948 ft 402 kts 197°
2026-04-29 17:23 47.63779 -3.15371 34952 ft 401 kts 197°
2026-04-29 17:24 47.58414 -3.17645 34950 ft 400 kts 197°
2026-04-29 17:24 47.53061 -3.19909 34950 ft 400 kts 197°
2026-04-29 17:25 47.47713 -3.22172 34950 ft 399 kts 197°
2026-04-29 17:25 47.42377 -3.24432 34950 ft 398 kts 197°
2026-04-29 17:26 47.37052 -3.26678 34945 ft 398 kts 197°
2026-04-29 17:26 47.31728 -3.28918 34941 ft 397 kts 197°
2026-04-29 17:27 47.26411 -3.31150 34941 ft 397 kts 197°
2026-04-29 17:27 47.21099 -3.33378 34942 ft 397 kts 197°
2026-04-29 17:28 47.15799 -3.35598 34935 ft 396 kts 197°
2026-04-29 17:28 47.10502 -3.37809 34938 ft 395 kts 197°
2026-04-29 17:29 47.05210 -3.40002 34938 ft 395 kts 197°
2026-04-29 17:29 47.00816 -3.41826 34939 ft 394 kts 197°
2026-04-29 17:30 46.94645 -3.44385 34935 ft 394 kts 197°
2026-04-29 17:30 46.89395 -3.46554 34912 ft 386 kts 194°
2026-04-29 17:31 46.84292 -3.48662 34910 ft 380 kts 194°
2026-04-29 17:31 46.79203 -3.50757 34914 ft 380 kts 194°
2026-04-29 17:32 46.74118 -3.52851 34908 ft 380 kts 194°
2026-04-29 17:32 46.69034 -3.54934 34906 ft 380 kts 194°
2026-04-29 17:33 46.63940 -3.57013 34907 ft 380 kts 194°
2026-04-29 17:33 46.58849 -3.59086 34909 ft 380 kts 194°
2026-04-29 17:34 46.53753 -3.61151 34910 ft 380 kts 194°
2026-04-29 17:34 46.48658 -3.63226 34913 ft 380 kts 194°
2026-04-29 17:35 46.41016 -3.66342 34916 ft 380 kts 194°
2026-04-29 17:36 46.35923 -3.68409 34908 ft 380 kts 194°
2026-04-29 17:36 46.30783 -3.70135 34909 ft 379 kts 185°
2026-04-29 17:37 46.25532 -3.70897 34904 ft 379 kts 186°
2026-04-29 17:37 46.20279 -3.71677 34911 ft 380 kts 186°
2026-04-29 17:38 46.15027 -3.72472 34904 ft 380 kts 186°
2026-04-29 17:38 46.09770 -3.73259 34905 ft 380 kts 186°
2026-04-29 17:39 46.04504 -3.74038 34902 ft 380 kts 186°
2026-04-29 17:39 45.99239 -3.74816 34903 ft 380 kts 186°
2026-04-29 17:40 45.93973 -3.75584 34902 ft 380 kts 186°
2026-04-29 17:40 45.88674 -3.76367 34896 ft 380 kts 186°
2026-04-29 17:41 45.83440 -3.77141 34899 ft 380 kts 186°
2026-04-29 17:41 45.78173 -3.77909 34893 ft 381 kts 186°
2026-04-29 17:42 45.72868 -3.78695 34888 ft 381 kts 186°
2026-04-29 17:42 45.67590 -3.79472 34888 ft 381 kts 186°
2026-04-29 17:43 45.62318 -3.80244 34887 ft 381 kts 186°
2026-04-29 17:43 45.57033 -3.81011 34884 ft 382 kts 186°
2026-04-29 17:44 45.51752 -3.81784 34883 ft 382 kts 186°
2026-04-29 17:44 45.46468 -3.82559 34889 ft 382 kts 186°
2026-04-29 17:45 45.41180 -3.83329 34895 ft 382 kts 186°
2026-04-29 17:45 45.35897 -3.84096 34888 ft 382 kts 186°
2026-04-29 17:46 45.30609 -3.84854 34888 ft 382 kts 186°
2026-04-29 17:46 45.25321 -3.85622 34888 ft 382 kts 186°
2026-04-29 17:47 45.20038 -3.86387 34884 ft 382 kts 186°
2026-04-29 17:47 45.14746 -3.87133 34886 ft 382 kts 186°
2026-04-29 17:48 45.09452 -3.87891 34876 ft 382 kts 186°
2026-04-29 17:48 45.04164 -3.88657 34879 ft 382 kts 186°
2026-04-29 17:49 44.98863 -3.89414 34882 ft 383 kts 186°
2026-04-29 17:49 44.93566 -3.90169 34877 ft 383 kts 186°
2026-04-29 17:50 44.88266 -3.90926 34883 ft 383 kts 186°
2026-04-29 17:50 44.82957 -3.91680 34882 ft 383 kts 186°
2026-04-29 17:51 44.77644 -3.92424 34878 ft 384 kts 186°
2026-04-29 17:51 44.72334 -3.93189 34879 ft 384 kts 186°
2026-04-29 17:52 44.67016 -3.93965 34875 ft 384 kts 186°
2026-04-29 17:52 44.61704 -3.94721 34874 ft 384 kts 186°
2026-04-29 17:53 44.56394 -3.95466 34873 ft 383 kts 186°
2026-04-29 17:53 44.51086 -3.96208 34868 ft 383 kts 186°
2026-04-29 17:54 44.45779 -3.96951 34873 ft 383 kts 186°
2026-04-29 17:54 44.41329 -3.97575 34867 ft 383 kts 186°
2026-04-29 17:55 44.36018 -3.98324 34862 ft 383 kts 186°
2026-04-29 17:55 44.30692 -3.98555 34864 ft 384 kts 176°
2026-04-29 17:56 44.25368 -3.98017 34857 ft 383 kts 177°
2026-04-29 17:56 44.20043 -3.97497 34855 ft 383 kts 177°
2026-04-29 17:57 44.14726 -3.96973 34852 ft 383 kts 177°
2026-04-29 17:57 44.09409 -3.96455 34853 ft 383 kts 177°
2026-04-29 17:58 44.04096 -3.95946 34850 ft 382 kts 177°
2026-04-29 17:58 43.98784 -3.95429 34849 ft 383 kts 176°
2026-04-29 17:59 43.93474 -3.94911 34848 ft 383 kts 177°
2026-04-29 17:59 43.88164 -3.94395 34844 ft 382 kts 177°
2026-04-29 18:00 43.82851 -3.93891 34844 ft 382 kts 177°
2026-04-29 18:00 43.77542 -3.93379 34841 ft 382 kts 176°
2026-04-29 18:01 43.72241 -3.92865 34842 ft 382 kts 177°
2026-04-29 18:01 43.66939 -3.92356 34833 ft 382 kts 177°
2026-04-29 18:02 43.61633 -3.91849 34833 ft 382 kts 177°
2026-04-29 18:02 43.56321 -3.91339 34834 ft 382 kts 177°
2026-04-29 18:03 43.51009 -3.90829 34833 ft 383 kts 177°
2026-04-29 18:03 43.45696 -3.90336 34838 ft 383 kts 180°
2026-04-29 18:04 43.40400 -3.90914 34837 ft 382 kts 186°
2026-04-29 18:04 43.35108 -3.91711 34836 ft 382 kts 186°
2026-04-29 18:05 43.29824 -3.92502 34837 ft 382 kts 186°
2026-04-29 18:05 43.24534 -3.93285 34850 ft 382 kts 186°
2026-04-29 18:06 43.19245 -3.94063 34851 ft 382 kts 186°
2026-04-29 18:06 43.13962 -3.94843 34855 ft 382 kts 186°
2026-04-29 18:07 43.08684 -3.95623 34860 ft 382 kts 186°
2026-04-29 18:07 43.03401 -3.96400 34865 ft 382 kts 186°
2026-04-29 18:08 42.98119 -3.97177 34871 ft 381 kts 186°
2026-04-29 18:08 42.92843 -3.97949 34877 ft 381 kts 186°
2026-04-29 18:09 42.87573 -3.98719 34881 ft 381 kts 186°
2026-04-29 18:09 42.82299 -3.99482 34885 ft 381 kts 186°
2026-04-29 18:10 42.77026 -4.00247 34886 ft 381 kts 186°
2026-04-29 18:10 42.71758 -4.01011 34890 ft 381 kts 186°
2026-04-29 18:11 42.66490 -4.01772 34888 ft 381 kts 186°
2026-04-29 18:11 42.61218 -4.02532 34890 ft 381 kts 186°
2026-04-29 18:12 42.55944 -4.03296 34887 ft 381 kts 186°
2026-04-29 18:12 42.50663 -4.04060 34887 ft 382 kts 186°
2026-04-29 18:13 42.45379 -4.04824 34886 ft 382 kts 186°
2026-04-29 18:13 42.40085 -4.05574 34884 ft 382 kts 186°
2026-04-29 18:14 42.34793 -4.06327 34890 ft 383 kts 186°
2026-04-29 18:14 42.29525 -4.07070 34891 ft 383 kts 186°
2026-04-29 18:15 42.24192 -4.07836 34891 ft 383 kts 186°
2026-04-29 18:15 42.18888 -4.08596 34896 ft 383 kts 186°
2026-04-29 18:16 42.13616 -4.09343 34899 ft 383 kts 187°
2026-04-29 18:16 42.08272 -4.10107 34900 ft 384 kts 187°
2026-04-29 18:17 42.02965 -4.10883 34902 ft 383 kts 187°
2026-04-29 18:17 41.97654 -4.11560 34905 ft 384 kts 186°
2026-04-29 18:18 41.92336 -4.12139 34907 ft 383 kts 186°
2026-04-29 18:18 41.87023 -4.12716 34906 ft 383 kts 186°
2026-04-29 18:19 41.81709 -4.13317 34909 ft 383 kts 186°
2026-04-29 18:19 41.76406 -4.13924 34907 ft 382 kts 186°
2026-04-29 18:20 41.71110 -4.14525 34905 ft 382 kts 186°
2026-04-29 18:20 41.65818 -4.15123 34907 ft 381 kts 186°
2026-04-29 18:21 41.60533 -4.15721 34900 ft 381 kts 187°
2026-04-29 18:21 41.55254 -4.16317 34899 ft 380 kts 187°
2026-04-29 18:22 41.49981 -4.16910 34894 ft 380 kts 187°
2026-04-29 18:22 41.44713 -4.17500 34893 ft 380 kts 187°
2026-04-29 18:23 41.39451 -4.18093 34891 ft 379 kts 187°
2026-04-29 18:23 41.34190 -4.18687 34887 ft 379 kts 187°
2026-04-29 18:24 41.28935 -4.19277 34886 ft 378 kts 187°
2026-04-29 18:24 41.23691 -4.19867 34889 ft 378 kts 188°
2026-04-29 18:25 41.18449 -4.20453 34886 ft 378 kts 188°
2026-04-29 18:25 41.13213 -4.21032 34886 ft 377 kts 188°
2026-04-29 18:26 41.07985 -4.21614 34888 ft 377 kts 188°
2026-04-29 18:26 41.02763 -4.22192 34884 ft 377 kts 188°
2026-04-29 18:27 40.97542 -4.22774 34895 ft 376 kts 188°
2026-04-29 18:27 40.92329 -4.23352 34893 ft 376 kts 188°
2026-04-29 18:28 40.87117 -4.23917 34896 ft 375 kts 188°
2026-04-29 18:28 40.81919 -4.24472 34895 ft 375 kts 188°
2026-04-29 18:29 40.76723 -4.25037 34891 ft 374 kts 188°
2026-04-29 18:29 40.71543 -4.25612 34890 ft 373 kts 189°
2026-04-29 18:30 40.67240 -4.26092 34888 ft 373 kts 189°
2026-04-29 18:30 40.62066 -4.26662 34892 ft 373 kts 189°
2026-04-29 18:31 40.56903 -4.27229 34890 ft 372 kts 189°
2026-04-29 18:31 40.51747 -4.27803 34880 ft 371 kts 189°
2026-04-29 18:32 40.46597 -4.28372 34878 ft 371 kts 189°
2026-04-29 18:32 40.38873 -4.29215 34873 ft 371 kts 189°
2026-04-29 18:33 40.33721 -4.29773 34867 ft 371 kts 189°
2026-04-29 18:33 40.28577 -4.30331 34869 ft 371 kts 189°
2026-04-29 18:34 40.24292 -4.30798 34868 ft 371 kts 189°
2026-04-29 18:34 40.18274 -4.31450 34870 ft 371 kts 189°
2026-04-29 18:35 40.13119 -4.32001 34871 ft 371 kts 189°
2026-04-29 18:35 40.07972 -4.32557 34869 ft 371 kts 190°
2026-04-29 18:36 40.02863 -4.33415 34865 ft 369 kts 194°
2026-04-29 18:36 39.97801 -4.34520 34862 ft 369 kts 194°
2026-04-29 18:37 39.92738 -4.35612 34859 ft 369 kts 194°
2026-04-29 18:37 39.87575 -4.36671 34879 ft 383 kts 193°
2026-04-29 18:38 39.82220 -4.37747 34873 ft 394 kts 193°
2026-04-29 18:38 39.76785 -4.38832 34873 ft 396 kts 193°
2026-04-29 18:39 39.71341 -4.39930 34872 ft 396 kts 194°
2026-04-29 18:39 39.65895 -4.41018 34880 ft 396 kts 194°
2026-04-29 18:40 39.60443 -4.42104 34877 ft 396 kts 194°
2026-04-29 18:40 39.54989 -4.43186 34877 ft 396 kts 193°
2026-04-29 18:41 39.44071 -4.45360 34868 ft 397 kts 194°
2026-04-29 18:42 39.38602 -4.46447 34864 ft 398 kts 194°
2026-04-29 18:42 39.33120 -4.47534 34865 ft 399 kts 194°
2026-04-29 18:43 39.27634 -4.48623 34866 ft 399 kts 194°
2026-04-29 18:43 39.22236 -4.50111 34864 ft 392 kts 206°
2026-04-29 18:44 39.17585 -4.53614 34864 ft 387 kts 216°
2026-04-29 18:44 39.13097 -4.57463 34869 ft 388 kts 216°
2026-04-29 18:45 39.08586 -4.61303 34872 ft 389 kts 216°
2026-04-29 18:45 39.04077 -4.65137 34869 ft 389 kts 216°
2026-04-29 18:46 38.99555 -4.68974 34875 ft 389 kts 216°
2026-04-29 18:46 38.95020 -4.72800 34877 ft 390 kts 216°
2026-04-29 18:47 38.90484 -4.76633 34877 ft 390 kts 217°
2026-04-29 18:47 38.85949 -4.80480 34868 ft 391 kts 217°
2026-04-29 18:48 38.81410 -4.84321 34874 ft 391 kts 217°
2026-04-29 18:48 38.79144 -4.86233 34598 ft 389 kts 217°
2026-04-29 18:48 38.76896 -4.88126 34219 ft 384 kts 217°
2026-04-29 18:49 38.74671 -4.89996 33821 ft 380 kts 217°
2026-04-29 18:49 38.72468 -4.91842 33353 ft 377 kts 217°
2026-04-29 18:49 38.70285 -4.93672 32899 ft 373 kts 217°
2026-04-29 18:49 38.68124 -4.95487 32420 ft 370 kts 217°
2026-04-29 18:50 38.65987 -4.97283 31960 ft 366 kts 217°
2026-04-29 18:50 38.63866 -4.99062 31506 ft 363 kts 217°
2026-04-29 18:50 38.61731 -5.00847 31049 ft 360 kts 217°
2026-04-29 18:50 38.59664 -5.02573 30607 ft 357 kts 217°
2026-04-29 18:51 38.57590 -5.04304 30168 ft 355 kts 217°
2026-04-29 18:51 38.55504 -5.06049 29697 ft 352 kts 217°
2026-04-29 18:51 38.53463 -5.07757 29206 ft 349 kts 217°
2026-04-29 18:51 38.51422 -5.09421 28722 ft 348 kts 213°
2026-04-29 18:52 38.49182 -5.10626 28256 ft 352 kts 203°
2026-04-29 18:52 38.46838 -5.11534 27790 ft 351 kts 203°
2026-04-29 18:52 38.44511 -5.12440 27348 ft 349 kts 203°
2026-04-29 18:52 38.42200 -5.13344 26924 ft 346 kts 203°
2026-04-29 18:53 38.39899 -5.14247 26513 ft 344 kts 203°
2026-04-29 18:53 38.37616 -5.15143 26117 ft 342 kts 203°
2026-04-29 18:53 38.35345 -5.16035 25706 ft 340 kts 203°
2026-04-29 18:53 38.33086 -5.16920 25303 ft 339 kts 203°
2026-04-29 18:54 38.30838 -5.17799 24900 ft 337 kts 203°
2026-04-29 18:54 38.28607 -5.18671 24485 ft 335 kts 203°
2026-04-29 18:54 38.26382 -5.19540 24095 ft 333 kts 203°
2026-04-29 18:54 38.24171 -5.20404 23703 ft 331 kts 203°
2026-04-29 18:55 38.21974 -5.21263 23259 ft 329 kts 203°
2026-04-29 18:55 38.19788 -5.22115 22797 ft 327 kts 203°
2026-04-29 18:55 38.17621 -5.22960 22325 ft 325 kts 203°
2026-04-29 18:55 38.15463 -5.23799 21913 ft 322 kts 202°
2026-04-29 18:56 38.13341 -5.24621 21581 ft 317 kts 202°
2026-04-29 18:56 38.11238 -5.25437 21186 ft 314 kts 202°
2026-04-29 18:56 38.09155 -5.26248 20776 ft 312 kts 202°
2026-04-29 18:56 38.07083 -5.27053 20325 ft 311 kts 202°
2026-04-29 18:57 38.05023 -5.27850 19921 ft 309 kts 202°
2026-04-29 18:57 38.02970 -5.28643 19516 ft 307 kts 202°
2026-04-29 18:57 38.00932 -5.29432 19136 ft 306 kts 202°
2026-04-29 18:57 37.98906 -5.30220 18735 ft 304 kts 202°
2026-04-29 18:58 37.96891 -5.31003 18344 ft 302 kts 202°
2026-04-29 18:58 37.94882 -5.31784 17880 ft 302 kts 202°
2026-04-29 18:58 37.92879 -5.32562 17437 ft 299 kts 202°
2026-04-29 18:58 37.90894 -5.33332 17023 ft 298 kts 202°
2026-04-29 18:59 37.88915 -5.34097 16578 ft 297 kts 201°
2026-04-29 18:59 37.86951 -5.34856 16252 ft 292 kts 201°
2026-04-29 18:59 37.85024 -5.35596 15952 ft 288 kts 201°
2026-04-29 18:59 37.83110 -5.36327 15570 ft 286 kts 201°
2026-04-29 19:00 37.81214 -5.37054 15197 ft 285 kts 201°
2026-04-29 19:00 37.79326 -5.37780 14830 ft 283 kts 201°
2026-04-29 19:00 37.77460 -5.38555 14460 ft 279 kts 207°
2026-04-29 19:00 37.75808 -5.39781 14087 ft 274 kts 220°
2026-04-29 19:01 37.74380 -5.41370 13687 ft 274 kts 223°
2026-04-29 19:01 37.72967 -5.42971 13301 ft 272 kts 223°
2026-04-29 19:01 37.71555 -5.44559 12923 ft 271 kts 223°
2026-04-29 19:01 37.70144 -5.46132 12525 ft 270 kts 221°
2026-04-29 19:02 37.68699 -5.47642 12145 ft 269 kts 220°
2026-04-29 19:02 37.67731 -5.48621 11904 ft 268 kts 220°
2026-04-29 19:02 37.65779 -5.50566 11414 ft 267 kts 219°
2026-04-29 19:02 37.64321 -5.52014 11055 ft 266 kts 219°
2026-04-29 19:03 37.62876 -5.53456 10692 ft 264 kts 219°
2026-04-29 19:03 37.61437 -5.54897 10337 ft 264 kts 220°
2026-04-29 19:03 37.60005 -5.56335 9984 ft 263 kts 219°
2026-04-29 19:03 37.58579 -5.57769 9621 ft 262 kts 220°
2026-04-29 19:04 37.57158 -5.59199 9239 ft 261 kts 219°
2026-04-29 19:04 37.55739 -5.60625 8865 ft 260 kts 219°
2026-04-29 19:04 37.54324 -5.62045 8494 ft 259 kts 219°
2026-04-29 19:04 37.52914 -5.63459 8116 ft 259 kts 219°
2026-04-29 19:05 37.51336 -5.64513 7754 ft 260 kts 195°
2026-04-29 19:05 37.49525 -5.64649 7464 ft 260 kts 181°
2026-04-29 19:05 37.47752 -5.64533 7345 ft 251 kts 180°
2026-04-29 19:05 37.46042 -5.64397 7223 ft 242 kts 180°
2026-04-29 19:06 37.44405 -5.64264 7144 ft 228 kts 180°
2026-04-29 19:06 37.42890 -5.64134 6962 ft 210 kts 180°
2026-04-29 19:06 37.40056 -5.63569 6067 ft 211 kts 153°
2026-04-29 19:07 37.39099 -5.62132 6035 ft 226 kts 117°
2026-04-29 19:07 37.38939 -5.61488 6037 ft 228 kts 105°
2026-04-29 19:07 37.39363 -5.58417 5533 ft 213 kts 71°
2026-04-29 19:07 37.39902 -5.56690 5076 ft 211 kts 70°
2026-04-29 19:08 37.40276 -5.55571 5036 ft 211 kts 67°
2026-04-29 19:08 37.41215 -5.54153 5031 ft 215 kts 34°
2026-04-29 19:08 37.42569 -5.53511 4722 ft 206 kts
2026-04-29 19:08 37.43909 -5.53892 4222 ft 193 kts 323°
2026-04-29 19:09 37.44651 -5.55153 4030 ft 179 kts 281°
2026-04-29 19:09 37.44717 -5.56679 3963 ft 170 kts 258°
2026-04-29 19:09 37.44441 -5.58095 3340 ft 166 kts 246°
2026-04-29 19:09 37.43921 -5.59400 3070 ft 169 kts 240°
2026-04-29 19:10 37.43359 -5.60706 3034 ft 170 kts 240°
2026-04-29 19:10 37.42793 -5.62013 3035 ft 171 kts 240°
2026-04-29 19:10 37.42216 -5.63315 3032 ft 171 kts 239°
2026-04-29 19:10 37.41639 -5.64643 3033 ft 170 kts 242°
2026-04-29 19:11 37.41399 -5.66086 3008 ft 169 kts 269°
2026-04-29 19:11 37.41465 -5.67524 2443 ft 166 kts 270°
2026-04-29 19:11 37.41540 -5.68991 2343 ft 170 kts 271°
2026-04-29 19:11 37.41616 -5.70392 2244 ft 149 kts 270°
2026-04-29 19:12 37.41684 -5.71616 2082 ft 132 kts 270°
2026-04-29 19:12 37.41744 -5.72748 2031 ft 128 kts 269°
2026-04-29 19:12 37.41792 -5.73875 2035 ft 129 kts 271°
2026-04-29 19:12 37.41831 -5.74620 2017 ft 129 kts 269°
2026-04-29 19:13 37.41862 -5.76138 1867 ft 131 kts 268°
2026-04-29 19:13 37.41871 -5.77262 1655 ft 127 kts 266°
2026-04-29 19:13 37.41857 -5.78387 1409 ft 129 kts 265°
2026-04-29 19:13 37.41845 -5.79512 1191 ft 127 kts 266°
2026-04-29 19:14 37.41847 -5.80640 1048 ft 129 kts 267°
2026-04-29 19:14 37.41825 -5.81759 958 ft 129 kts 265°
2026-04-29 19:14 37.41824 -5.82882 806 ft 133 kts 266°
2026-04-29 19:14 37.41832 -5.84039 623 ft 127 kts 264°
2026-04-29 19:15 37.41811 -5.85144 428 ft 129 kts 266°
2026-04-29 19:15 37.41816 -5.86279 281 ft 131 kts 268°
2026-04-29 19:15 37.41806 -5.87415 173 ft 131 kts 267°
2026-04-29 19:15 37.41801 -5.88483 115 ft 107 kts 270°
2026-04-29 19:16 37.41794 -5.89209 104 ft 63 kts 270°
2026-04-29 19:16 37.41795 -5.89677 101 ft 25 kts 283°
2026-04-29 19:16 37.41869 -5.89807 102 ft 17 kts 327°
2026-04-29 19:16 37.41942 -5.89851 101 ft 0 kts 339°
2026-04-29 19:17 37.41942 -5.89852 101 ft 1 kts 339°
2026-04-29 19:18 37.41960 -5.89859 101 ft 4 kts 345°
2026-04-29 19:18 37.41982 -5.89856 101 ft 5 kts 13°
2026-04-29 19:18 37.42043 -5.89796 100 ft 12 kts 46°
2026-04-29 19:18 37.42108 -5.89717 99 ft 9 kts 28°
2026-04-29 19:19 37.42138 -5.89737 99 ft 5 kts 316°
2026-04-29 19:19 37.42160 -5.89766 99 ft 0 kts 314°
2026-04-29 19:19 37.42161 -5.89767 99 ft 0 kts 314°